Weather History for Windsor Locks, CT

Change the Weather History Date:

Saturday, August 23, 2014

  Actual Average Record
Temperature  
Mean Temperature 67 °F 71 °F  
Max Temperature 76 °F 82 °F 91 °F (1916)
Min Temperature 57 °F 60 °F 42 °F (1988)
Degree Days  
Heating Degree Days 0 0  
Month to date heating degree days 2 0  
Since 1 June heating degree days 8 43  
Since 1 July heating degree days 2 3  
Cooling Degree Days 2 6  
Month to date cooling degree days 119 178  
Year to date cooling degree days 603 630  
Since 1 June cooling degree days 571 591  
Growing Degree Days 18 (Base 50)    
Moisture  
Dew Point 58 °F    
Average Humidity 72    
Maximum Humidity 93    
Minimum Humidity 50    
Precipitation  
Precipitation 0.00 in 0.12 in 1.13 in (1970)
Month to date precipitation 3.49 3.09  
Year to date precipitation 31.70 29.43  
Snow  
Snow 0.00 in 0.00 in 0.00 in (2002)
Month to date snowfall 0.0 0.0  
Since 1 June snowfall 0.0 0.0  
Since 1 July snowfall 0.0 0.0  
Snow Depth 0.00 in    
Sea Level Pressure  
Sea Level Pressure 30.10 in    
Wind  
Wind Speed 6 mph (NNE)    
Max Wind Speed 14 mph    
Max Gust Speed 17 mph    
Visibility 10 miles    
Events      
T = Trace of Precipitation, MM = Missing Value Source: NWS Daily Summary

Daily Weather History Graph

Daily Weather History Graph

Search for Another Location

Airport:

Trip Planner

Search our weather history database for the weather conditions in past years. The results will help you decide how hot, cold, wet, or windy it might be!

Date:

Astronomy

Aug. 23, 2014 Rise Set
Actual Time 6:07 AM EDT 7:38 PM EDT
Civil Twilight 5:37 AM EDT 8:08 PM EDT
Nautical Twilight 5:02 AM EDT 8:43 PM EDT
Astronomical Twilight 4:24 AM EDT 9:20 PM EDT
Moon 4:19 AM EDT (8/23) 6:22 PM EDT (8/23)
Length of Visible Light 14h 30m
Length of Day
13h 31m
Waning Crescent, 3% of the Moon is Illuminated
Aug 23
Waning Crescent
Aug 25
New
Sep 2
First Quarter
Sep 8
Full
Sep 15
Last Quarter

Hourly Weather History & Observations

Time (EDT) Temp. Dew Point Humidity Pressure Visibility Wind Dir Wind Speed Gust Speed Precip Events Conditions
12:51 AM 64.4 °F 62.6 °F 94% 30.09 in 10.0 mi North 5.8 mph - N/A   Mostly Cloudy
1:05 AM 64.9 °F 62.1 °F 90% 30.09 in 10.0 mi North 5.8 mph - N/A   Overcast
1:51 AM 64.4 °F 60.8 °F 88% 30.08 in 10.0 mi NNE 6.9 mph - N/A   Overcast
2:51 AM 64.0 °F 60.1 °F 87% 30.08 in 10.0 mi North 6.9 mph - N/A   Mostly Cloudy
3:51 AM 64.4 °F 59.0 °F 83% 30.08 in 10.0 mi North 6.9 mph - N/A   Mostly Cloudy
4:51 AM 64.0 °F 59.0 °F 84% 30.09 in 10.0 mi North 6.9 mph - N/A   Overcast
5:51 AM 63.0 °F 59.0 °F 87% 30.09 in 10.0 mi North 5.8 mph - N/A   Mostly Cloudy
6:51 AM 63.0 °F 59.0 °F 87% 30.10 in 10.0 mi North 6.9 mph - N/A   Mostly Cloudy
7:51 AM 64.0 °F 57.9 °F 80% 30.12 in 10.0 mi NNE 8.1 mph - N/A   Mostly Cloudy
8:51 AM 64.9 °F 57.9 °F 78% 30.12 in 10.0 mi NNE 10.4 mph - N/A   Mostly Cloudy
9:51 AM 69.1 °F 57.9 °F 68% 30.11 in 10.0 mi NNE 9.2 mph - N/A   Mostly Cloudy
10:51 AM 71.6 °F 57.2 °F 60% 30.12 in 10.0 mi NNE 8.1 mph - N/A   Mostly Cloudy
11:27 AM 73.0 °F 57.9 °F 59% 30.11 in 10.0 mi NNE 11.5 mph - N/A   Mostly Cloudy
11:51 AM 73.0 °F 57.0 °F 57% 30.11 in 10.0 mi Variable 6.9 mph - N/A   Mostly Cloudy
12:51 PM 73.0 °F 55.0 °F 53% 30.10 in 10.0 mi Variable 4.6 mph - N/A   Mostly Cloudy
1:51 PM 75.2 °F 55.4 °F 50% 30.09 in 10.0 mi NE 4.6 mph - N/A   Mostly Cloudy
2:51 PM 73.9 °F 55.0 °F 52% 30.10 in 10.0 mi ENE 6.9 mph - N/A   Overcast
3:51 PM 73.9 °F 55.9 °F 53% 30.09 in 10.0 mi NE 6.9 mph - N/A   Overcast
4:51 PM 75.0 °F 55.9 °F 51% 30.10 in 10.0 mi NE 5.8 mph - N/A   Overcast
5:51 PM 73.9 °F 57.0 °F 55% 30.10 in 10.0 mi North 4.6 mph - N/A   Mostly Cloudy
6:51 PM 72.0 °F 59.0 °F 64% 30.10 in 10.0 mi North 3.5 mph - N/A   Mostly Cloudy
7:51 PM 69.1 °F 60.1 °F 73% 30.11 in 10.0 mi North 3.5 mph - N/A   Mostly Cloudy
8:51 PM 66.0 °F 57.9 °F 75% 30.12 in 10.0 mi Calm Calm - N/A   Scattered Clouds
9:51 PM 63.0 °F 59.0 °F 87% 30.12 in 10.0 mi Calm Calm - N/A   Partly Cloudy
10:51 PM 60.8 °F 57.2 °F 88% 30.13 in 10.0 mi NW 4.6 mph - N/A   Clear
11:51 PM 59.0 °F 55.9 °F 90% 30.13 in 10.0 mi WNW 3.5 mph - N/A   Clear